Weather History for KCNK - September, 2012

Change the Weather History Date:

Sunday, September 2, 2012

  Actual Average Record
Temperature  
Mean Temperature 82 °F 74 °F  
Max Temperature 96 °F 85 °F 109 °F (2000)
Min Temperature 67 °F 62 °F 45 °F (1893)
Degree Days  
Heating Degree Days 0 0  
Month to date heating degree days 0 0  
Since 1 July heating degree days 0 3  
Cooling Degree Days 17 9  
Month to date cooling degree days 30 18  
Year to date cooling degree days 1552 1184  
Growing Degree Days 31 (Base 50)    
Moisture  
Dew Point 66 °F    
Average Humidity 63    
Maximum Humidity 90    
Minimum Humidity 36    
Precipitation  
Precipitation 0.00 in 0.10 in 1.62 in (1942)
Month to date precipitation 0.00 0.20  
Year to date precipitation 18.25 21.30  
Snow  
Snow 0.00 in 0.00 in 0.00 in ()
Month to date snowfall 0.0 0.0  
Year to date snowfall 5.8 13.7  
Since 1 July snowfall 0.0 0.0  
Snow Depth 0.00 in    
Sea Level Pressure  
Sea Level Pressure 29.87 in    
Wind  
Wind Speed 8 mph (SE)    
Max Wind Speed 16 mph    
Max Gust Speed 20 mph    
Visibility 10 miles    
Events      
T = Trace of Precipitation, MM = Missing Value Source: NWS Daily Summary

Daily Weather History Graph

Daily Weather History Graph

Search for Another Location

Airport or City:

Trip Planner

Search our weather history database for the weather conditions in past years. The results will help you decide how hot, cold, wet, or windy it might be!

Date:

Astronomy

Sep. 02, 2012 Rise Set
Actual Time 7:00 AM CDT 7:59 PM CDT
Civil Twilight 6:32 AM CDT 8:26 PM CDT
Nautical Twilight 6:00 AM CDT 8:59 PM CDT
Astronomical Twilight 5:25 AM CDT 9:33 PM CDT
Moon 8:48 PM CDT (9/2) 9:09 AM CDT (9/2)
Length of Visible Light 13h 53m
Length of Day
12h 58m
Waning Gibbous, 95% of the Moon is Illuminated
Sep 2
Waning Gibbous
Sep 8
Last Quarter
Sep 15
New
Sep 22
First Quarter
Sep 29
Full

Hourly Weather History & Observations

Time (CDT) Temp. Heat Index Dew Point Humidity Pressure Visibility Wind Dir Wind Speed Gust Speed Precip Events Conditions
12:55 AM 73.0 °F - 64.9 °F 76% 29.92 in 10.0 mi ESE 8.1 mph - N/A   Clear
1:55 AM 71.1 °F - 64.9 °F 81% 29.92 in 10.0 mi SE 5.8 mph - N/A   Clear
2:55 AM 71.6 °F - 64.4 °F 78% 29.97 in 10.0 mi ESE 4.6 mph - N/A   Clear
3:55 AM 68.0 °F - 64.9 °F 90% 29.92 in 10.0 mi Calm Calm - N/A   Clear
4:55 AM 68.0 °F - 64.9 °F 90% 29.91 in 10.0 mi Calm Calm - N/A   Clear
5:55 AM 68.0 °F - 64.9 °F 90% 29.91 in 10.0 mi SSE 5.8 mph - N/A   Clear
6:55 AM 68.0 °F - 64.9 °F 90% 29.92 in 10.0 mi SSE 5.8 mph - N/A   Clear
7:55 AM 70.0 °F - 66.0 °F 87% 29.94 in 10.0 mi SSE 6.9 mph - N/A   Clear
8:55 AM 75.0 °F - 68.0 °F 79% 29.93 in 10.0 mi South 8.1 mph - N/A   Clear
9:55 AM 79.0 °F - 68.0 °F 69% 29.92 in 10.0 mi South 11.5 mph - N/A   Clear
10:55 AM 84.0 °F 87.0 °F 68.0 °F 58% 29.91 in 10.0 mi SSE 11.5 mph - N/A   Clear
11:55 AM 87.1 °F 90.6 °F 68.0 °F 53% 29.90 in 10.0 mi South 11.5 mph - N/A   Clear
12:55 PM 90.0 °F 92.4 °F 66.0 °F 45% 29.88 in 10.0 mi SSE 11.5 mph - N/A   Clear
1:55 PM 93.0 °F 95.9 °F 66.0 °F 41% 29.86 in 10.0 mi South 10.4 mph - N/A   Clear
2:55 PM 93.9 °F 97.0 °F 66.0 °F 40% 29.83 in 10.0 mi SSE 11.5 mph - N/A   Clear
3:55 PM 95.0 °F 97.4 °F 64.9 °F 37% 29.82 in 10.0 mi South 9.2 mph 16.1 mph N/A   Clear
4:55 PM 95.0 °F 97.4 °F 64.9 °F 37% 29.80 in 10.0 mi SE 15.0 mph - N/A   Clear
5:55 PM 93.9 °F 95.6 °F 64.0 °F 37% 29.80 in 10.0 mi SE 10.4 mph - N/A   Clear
6:55 PM 91.0 °F 92.6 °F 64.0 °F 41% 29.79 in 10.0 mi SE 6.9 mph - N/A   Clear
7:55 PM 84.0 °F 86.3 °F 66.0 °F 55% 29.80 in 10.0 mi ESE 5.8 mph - N/A   Clear
8:55 PM 80.1 °F 82.1 °F 66.0 °F 62% 29.80 in 10.0 mi ESE 8.1 mph - N/A   Clear
9:55 PM 79.0 °F - 68.0 °F 69% 29.82 in 10.0 mi ESE 8.1 mph - N/A   Clear
10:55 PM 75.2 °F - 68.0 °F 78% 29.87 in 10.0 mi ESE 10.4 mph - N/A   Clear
11:55 PM 75.0 °F - 66.9 °F 76% 29.82 in 10.0 mi SE 10.4 mph - N/A   Clear